Location: Newark
(29.9790°N, 31.1340°E)
Time: 20:50:17
(UTC+00:00)

Vanguard 3 - Pass Details

Date: 23 January 2020
Orbit: 508 x 3263 km, 33.3° (Epoch: 22 February)

Event Time Altitude Azimuth Distance (km) Brightness Sun altitude
Rises 20:47:37 0° 287° (WNW) 6,669 12.1 -69.1°
Reaches altitude 10° 20:52:37 10° 286° (WNW) 5,302 11.4 -70.1°
Enters shadow 20:56:05 19° 285° (WNW) 4,316 10.9 -70.7°
